Location: Étouvelles
(49.5207°N, 3.5808°E)
Time: 13:38:19
(UTC+00:00)

Okean-O - Pass Details

Date: 03 February 2023
Orbit: 637 x 638 km, 98.1° (Epoch: 22 March)

Event Time Altitude Azimuth Distance (km) Brightness Sun altitude
Exits shadow 19:26:44 25° 356° (N) 1,296 4.2 -26.5°
Drops below altitude 10° 19:28:38 10° 351° (N) 2,043 5.4 -26.8°
Sets 19:30:52 0° 349° (NNW) 2,957 6.3 -27.2°
